Flag for U.S.A. Weather past 2 weeks in Temple, Texas, U.S.A.

Now
40 °F

Clear.


Feels Like: 40 °F
Forecast: 32 / 56 °F
Wind: 2 mph from Southeast

Location: Fort Hood AAF Airport

Current Time: Mar 6, 2015 at 11:13:34 PM

Latest Report: Mar 6, 2015 at 9:58 PM


Visibility: 10 mi

Pressure: 30.47 "Hg

Humidity: 64%

Dew point: 29 °F

Location of TempleLocation

Historic Weather in Temple — Graph

°F

Temple temperature yesterday

Maximum temperature yesterday: 41 °F (at 3:58 PM)
Minimum temperature yesterday: 26 °F (at 11:58 PM)
Average temperature yesterday: 33 °F

Past Weeks' High & Low Weather Summary

 TemperatureHumidityPressure
High74 °F (Feb 20, 4:58 PM)100% (Feb 22, 9:58 AM)30.62 "Hg (Feb 22, 9:58 AM)
Low24 °F (Mar 6, 3:58 AM)30% (Mar 6, 2:58 PM)29.71 "Hg (Feb 20, 4:58 PM)
Average41 °F87%30.17 "Hg
* Reported Feb 19 9:58 PM — Mar 6 9:58 PM, Temple, Weather by CustomWeather, © 2015

Note: Actual official high and low records may vary slightly from our data, if they occured in-between our weather recording intervals... More about our weather records

Advertising

Temple weather history for previous 24 hours

 ConditionsComfort  
Time TempWeatherWind HumidityBarometerVisibility
9:58 PM
Fri, Mar 6
40 °FClear.2 mph64%30.47 "Hg10 mi
8:58 PM42 °FClear.6 mph61%30.47 "Hg10 mi
7:58 PM44 °FPassing clouds.6 mph55%30.46 "Hg10 mi
6:58 PM48 °FClear.6 mph41%30.45 "Hg10 mi
5:58 PM52 °FPassing clouds.6 mph34%30.44 "Hg10 mi
4:58 PM54 °FSunny.6 mph31%30.44 "Hg10 mi
3:58 PM52 °FSunny.2 mph31%30.45 "Hg10 mi
2:58 PM52 °FSunny.3 mph30%30.46 "Hg10 mi
1:58 PM49 °FSunny.2 mph34%30.49 "Hg10 mi
12:58 PM46 °FSunny.6 mph36%30.55 "Hg10 mi
11:58 AM46 °FSunny.6 mph38%30.58 "Hg10 mi
10:58 AM40 °FSunny.7 mph41%30.60 "Hg10 mi
9:58 AM40 °FSunny.5 mph47%30.62 "Hg10 mi
8:58 AM35 °FSunny.3 mph54%30.61 "Hg10 mi
7:58 AM29 °FSunny.2 mph75%30.58 "Hg9 mi
6:58 AM25 °FSunny.2 mph76%30.58 "Hg10 mi
5:58 AM25 °FClear.3 mph79%30.57 "Hg10 mi
4:58 AM25 °FClear.3 mph77%30.56 "Hg10 mi
3:58 AM24 °FClear.6 mph80%30.55 "Hg10 mi
2:58 AM26 °FClear.6 mph76%30.58 "Hg10 mi
1:58 AM26 °FClear.7 mph79%30.58 "Hg10 mi
12:58 AM26 °FClear.8 mph82%30.58 "Hg10 mi
11:58 PM
Thu, Mar 5
26 °FClear.8 mph83%30.60 "Hg10 mi
Weather by CustomWeather, © 2015

See weather overviewHow to use our weather pages